[[{"header":{"parameterUnit":"m.s-1","parameterCategory":1,"la1":30.2991,"la2":30.254,"lo1":-89.0895,"lo2":-89.0444,"dy":0.0017,"dx":0.0017,"nx":28,"ny":28,"refTime":"2023-09-09T21:00:00:Z","depth":0,"parameterNumber":2,"parameterNumberName":"U-component_of_WINDS"},"data":[0,0,0,0,0,0,0,0,0,0,0,0,0,0,0,0,0,0,0,0,0,0,0,0,0,0,0,0,0,0,0,0,0,0,0,0,0,0,0,0,0,0,0,0,0,0,0,0,0,0,0,0,0,0,0,0,0,0,0.6437,0.6437,0,0.6449,0.6449,0.6449,0.6457,0.6457,0.6457,0.6457,0.647,0.647,0.647,0,0,0,0,0,0,0,0,0,0,0,0,0,0.6421,0.6421,0.6437,0.6437,0.6438,0.6449,0.6449,0.6449,0.6457,0.6457,0.6457,0.6457,0.647,0.647,0.647,0,0,0,0,0,0,0,0,0,0,0,0,0,0.643,0.6421,0.6437,0.6443,0.6443,0.6449,0.6449,0.6449,0.6457,0.6457,0.6457,0.6457,0.647,0.647,0.6471,0.6472,0,0,0.6472,0.6472,0,0,0,0,0,0,0,0,0.6429,0.6431,0.6442,0.6442,0.6443,0.6452,0.6448,0.6457,0.6457,0.6452,0.6457,0.6457,0.6464,0.6465,0.6467,0.6472,0.6473,0.6472,0.6472,0.6472,0.6472,0,0,0,0,0,0,0,0.6429,0.643,0.6442,0.6442,0.6443,0.6445,0.6446,0.645,0.6457,0.6452,0.6453,0.6454,0.6464,0.6466,0.6467,0.6473,0.6472,0.6472,0.6473,0.6473,0.6478,0.6478,0,0,0,0,0,0,0.6427,0.6429,0.6442,0.6442,0.6436,0.6445,0.6446,0.6449,0.6457,0.6459,0.6454,0.6455,0.6466,0.6467,0.6468,0.6468,0.6472,0.6473,0.6473,0.6478,0.6478,0.6478,0,0,0,0,0,0,0.6427,0.6428,0.6441,0.6436,0.6438,0.6445,0.6448,0.6449,0.6451,0.6459,0.646,0.6455,0.6466,0.6467,0.647,0.6469,0.6473,0.6473,0.6478,0.6478,0.6478,0.6471,0,0,0,0,0,0,0.6426,0.6428,0.6429,0.6436,0.6438,0.6444,0.6448,0.6449,0.6452,0.6453,0.646,0.6461,0.6466,0.6469,0.6471,0.647,0.6474,0.6479,0.6478,0.6478,0.6471,0.647,0.647,0,0,0,0,0,0.6426,0.6427,0.6429,0.643,0.6439,0.6444,0.6445,0.645,0.6452,0.6452,0.6457,0.6461,0.6469,0.647,0.6471,0.647,0.6479,0.6478,0.6478,0.6471,0.647,0.647,0,0,0,0,0,0,0.642,0.6428,0.643,0.6434,0.6438,0.6445,0.6446,0.6449,0.6453,0.6454,0.646,0.6462,0.6464,0.6467,0.6468,0.6471,0.6474,0.6474,0.6468,0.6468,0.6467,0.6466,0.6474,0,0,0,0,0,0.6419,0.6422,0.6429,0.6431,0.6433,0.6439,0.6441,0.6445,0.6449,0.6451,0.6456,0.646,0.6464,0.6466,0.647,0.6471,0.6473,0.6471,0.6471,0.647,0.647,0.647,0.6469,0.6477,0.6477,0.6477,0,0,0.6417,0.6422,0.6424,0.643,0.6434,0.6436,0.644,0.6443,0.6445,0.6452,0.6455,0.6458,0.6463,0.6466,0.6467,0.6469,0.6468,0.647,0.6469,0.6469,0.6469,0.6469,0.6468,0.6477,0.6477,0.6477,0,0,0.6415,0.6419,0.6421,0.6424,0.6429,0.6433,0.6433,0.6439,0.6442,0.6445,0.6449,0.6452,0.6458,0.6461,0.6463,0.646,0.6464,0.6461,0.6457,0.6457,0.6456,0.6456,0.6454,0.6453,0.6461,0.6461,0.6461,0,0.6412,0.6416,0.6421,0.6423,0.6426,0.6431,0.6432,0.6435,0.6441,0.6443,0.6445,0.6451,0.6455,0.6457,0.6456,0.6459,0.6459,0.646,0.6456,0.6456,0.6455,0.6453,0.6453,0.6461,0.6461,0.6461,0.6461,0,0.6412,0.6415,0.6415,0.642,0.6422,0.6424,0.6429,0.6431,0.6434,0.6437,0.6439,0.6444,0.6448,0.6449,0.6452,0.6451,0.6452,0.6455,0.6458,0.6454,0.6452,0.6452,0.646,0.646,0.646,0.6461,0,0,0.6408,0.6414,0.6414,0.6416,0.6421,0.6423,0.6424,0.6428,0.6428,0.6432,0.6433,0.6437,0.644,0.6442,0.6446,0.6446,0.6442,0.6449,0.6449,0.6446,0.6439,0.6437,0.6436,0.6444,0.6444,0.6444,0.6438,0,0.6406,0.6408,0.6412,0.6413,0.6415,0.6419,0.6421,0.6424,0.6426,0.6428,0.6431,0.6434,0.6437,0.6439,0.6439,0.6442,0.644,0.6443,0.6444,0.6444,0.6442,0.6435,0.6433,0.6427,0.6438,0.6438,0.6438,0,0.6404,0.6407,0.6408,0.6411,0.6412,0.6413,0.6416,0.6417,0.6421,0.6422,0.6424,0.6428,0.6429,0.6432,0.6433,0.6435,0.6436,0.6437,0.6437,0.6437,0.644,0.6434,0.6426,0.6425,0.6437,0.6437,0.6437,0,0.64,0.6403,0.6404,0.6405,0.641,0.641,0.6412,0.6415,0.6416,0.6419,0.6419,0.6422,0.6423,0.6425,0.6428,0.6431,0.6429,0.6432,0.643,0.643,0.6429,0.6429,0.642,0.6431,0.6431,0.6431,0.6431,0,0.6397,0.6397,0.6402,0.6402,0.6402,0.6406,0.6406,0.6409,0.6411,0.6411,0.6416,0.6416,0.6421,0.6422,0.6425,0.6425,0.6426,0.6427,0.6428,0.6426,0.6426,0.6427,0.6427,0.643,0.643,0.6431,0.6431,0,0.6392,0.6395,0.6396,0.64,0.64,0.64,0.6403,0.6403,0.6406,0.6406,0.6407,0.6411,0.6412,0.6416,0.6418,0.642,0.6418,0.642,0.6417,0.6417,0.6414,0.6414,0.6405,0.6404,0.6416,0.6415,0.6415,0,0.639,0.639,0.6393,0.6393,0.6395,0.6396,0.6396,0.64,0.6401,0.6403,0.6403,0.6404,0.6405,0.6407,0.641,0.6411,0.6412,0.6409,0.6413,0.6411,0.6411,0.6411,0.641,0.6408,0.6408,0.6408,0.6408,0,0.6386,0.6387,0.6388,0.6388,0.6389,0.639,0.6392,0.6392,0.6395,0.6396,0.6396,0.6397,0.6399,0.64,0.6401,0.6403,0.6406,0.6407,0.6406,0.6404,0.6402,0.6402,0.6414,0.6407,0.6407,0.6407,0.6407,0.6407,0.6382,0.6381,0.6383,0.6383,0.6384,0.6385,0.6385,0.6387,0.6387,0.6388,0.639,0.639,0.6392,0.6394,0.6395,0.6395,0.6397,0.6396,0.6396,0.6396,0.6394,0.6402,0.6396,0.6396,0.6396,0.6396,0.6396,0,0.6377,0.6377,0.6378,0.6379,0.6379,0.6381,0.6382,0.6382,0.6381,0.6383,0.6383,0.6383,0.6383,0.6386,0.6386,0.6386,0.6387,0.6386,0.6385,0.6385,0.6393,0.6394,0.6384,0.6384,0.6384,0.6384,0.6384,0.6384,0.6374,0.6373,0.6374,0.6373,0.6374,0.6373,0.6374,0.6374,0.6375,0.6374,0.6374,0.6376,0.6377,0.6377,0.6377,0.6378,0.6378,0.6376,0.6377,0.6384,0.6385,0.6386,0.6386,0.6376,0.6376,0.6369,0.6369,0.6369]},{"header":{"parameterUnit":"m.s-1","parameterCategory":1,"la1":30.2991,"la2":30.254,"lo1":-89.0895,"lo2":-89.0444,"dy":0.0017,"dx":0.0017,"nx":28,"ny":28,"refTime":"2023-09-09T21:00:00:Z","depth":0,"parameterNumber":3,"parameterNumberName":"V-component_of_WINDS"},"data":[0,0,0,0,0,0,0,0,0,0,0,0,0,0,0,0,0,0,0,0,0,0,0,0,0,0,0,0,0,0,0,0,0,0,0,0,0,0,0,0,0,0,0,0,0,0,0,0,0,0,0,0,0,0,0,0,0,0,-0.0975,-0.0975,0,-0.1002,-0.1002,-0.1002,-0.1049,-0.105,-0.1051,-0.1051,-0.1078,-0.1078,-0.1078,0,0,0,0,0,0,0,0,0,0,0,0,0,-0.0962,-0.0962,-0.0975,-0.0975,-0.0975,-0.1002,-0.1002,-0.1003,-0.1049,-0.105,-0.1051,-0.1052,-0.1078,-0.1078,-0.1078,0,0,0,0,0,0,0,0,0,0,0,0,0,-0.0976,-0.0962,-0.0975,-0.1002,-0.1004,-0.1002,-0.1002,-0.1003,-0.1049,-0.105,-0.1051,-0.1052,-0.1078,-0.1078,-0.1078,-0.1051,0,0,-0.1077,-0.1077,0,0,0,0,0,0,0,0,-0.0975,-0.0976,-0.0997,-0.1,-0.1003,-0.1023,-0.1007,-0.1019,-0.1048,-0.1032,-0.1052,-0.1053,-0.1059,-0.106,-0.1062,-0.1052,-0.1053,-0.1077,-0.1077,-0.1077,-0.1077,0,0,0,0,0,0,0,-0.0974,-0.0975,-0.0985,-0.0998,-0.1001,-0.1012,-0.1015,-0.101,-0.1038,-0.1033,-0.1037,-0.1039,-0.1061,-0.1063,-0.1063,-0.1054,-0.1077,-0.1077,-0.1077,-0.1077,-0.1021,-0.102,0,0,0,0,0,0,-0.0969,-0.0974,-0.0985,-0.0986,-0.0992,-0.1011,-0.1015,-0.1015,-0.1038,-0.1042,-0.1038,-0.1041,-0.1062,-0.1064,-0.1065,-0.1034,-0.1077,-0.1077,-0.1077,-0.1023,-0.1021,-0.102,0,0,0,0,0,0,-0.0969,-0.097,-0.0984,-0.0981,-0.0984,-0.101,-0.101,-0.1015,-0.1017,-0.1041,-0.1047,-0.1035,-0.1063,-0.1065,-0.1054,-0.1035,-0.1077,-0.1077,-0.1024,-0.1022,-0.102,-0.0972,0,0,0,0,0,0,-0.0968,-0.0969,-0.096,-0.0981,-0.0984,-0.0972,-0.1009,-0.1015,-0.1017,-0.1022,-0.104,-0.1044,-0.1064,-0.1054,-0.1054,-0.1036,-0.1077,-0.1026,-0.1023,-0.1021,-0.0975,-0.0969,-0.0963,0,0,0,0,0,-0.0968,-0.0945,-0.0959,-0.096,-0.0972,-0.0971,-0.0973,-0.0997,-0.1015,-0.1006,-0.1021,-0.1044,-0.1037,-0.1052,-0.1052,-0.1034,-0.1027,-0.1024,-0.1021,-0.0978,-0.097,-0.0963,0,0,0,0,0,0,-0.0921,-0.0948,-0.0964,-0.0947,-0.0957,-0.0979,-0.0968,-0.0987,-0.0991,-0.0995,-0.1025,-0.1028,-0.1013,-0.1023,-0.1039,-0.1009,-0.1036,-0.1033,-0.1003,-0.0996,-0.0989,-0.0987,-0.1077,0,0,0,0,0,-0.0908,-0.0906,-0.093,-0.0913,-0.0917,-0.0941,-0.0942,-0.0959,-0.097,-0.0974,-0.0989,-0.0998,-0.0998,-0.0997,-0.0999,-0.0977,-0.0981,-0.0965,-0.0958,-0.0953,-0.095,-0.0939,-0.0931,-0.1009,-0.1009,-0.1009,0,0,-0.0883,-0.0898,-0.0894,-0.0904,-0.0913,-0.0909,-0.0944,-0.0939,-0.0936,-0.0973,-0.0964,-0.0974,-0.0987,-0.097,-0.0963,-0.0977,-0.0929,-0.0949,-0.0945,-0.0944,-0.0935,-0.0927,-0.092,-0.1007,-0.1008,-0.1008,0,0,-0.0835,-0.0846,-0.0832,-0.0841,-0.0855,-0.0871,-0.0868,-0.0887,-0.0896,-0.0887,-0.0914,-0.0911,-0.0911,-0.0918,-0.0922,-0.0876,-0.0897,-0.0875,-0.0842,-0.0831,-0.0825,-0.0819,-0.0802,-0.0796,-0.0872,-0.0872,-0.0872,0,-0.0801,-0.0797,-0.0823,-0.0816,-0.0819,-0.0853,-0.0839,-0.0846,-0.0859,-0.086,-0.0876,-0.0876,-0.0887,-0.0872,-0.086,-0.0862,-0.0859,-0.0873,-0.0824,-0.0818,-0.0814,-0.0798,-0.0791,-0.0869,-0.087,-0.087,-0.087,0,-0.0755,-0.0751,-0.0739,-0.0751,-0.0753,-0.0742,-0.0767,-0.0765,-0.0782,-0.0797,-0.0787,-0.08,-0.0805,-0.0803,-0.082,-0.079,-0.0798,-0.0818,-0.0846,-0.0803,-0.0789,-0.0783,-0.0866,-0.0867,-0.0867,-0.0868,0,0,-0.0678,-0.0704,-0.0699,-0.0705,-0.0722,-0.072,-0.071,-0.0715,-0.0713,-0.0721,-0.0714,-0.0712,-0.0731,-0.0735,-0.0753,-0.0743,-0.0704,-0.0764,-0.0765,-0.0752,-0.0672,-0.0656,-0.0649,-0.0718,-0.0717,-0.0716,-0.0671,0,-0.0633,-0.0619,-0.0642,-0.0623,-0.0619,-0.0651,-0.0643,-0.0652,-0.0665,-0.0664,-0.0679,-0.0677,-0.0702,-0.0704,-0.0696,-0.0711,-0.0689,-0.0714,-0.0711,-0.0711,-0.0707,-0.0642,-0.0625,-0.0582,-0.0665,-0.0664,-0.0664,0,-0.0578,-0.0584,-0.0564,-0.0582,-0.0581,-0.0574,-0.058,-0.0578,-0.0589,-0.0599,-0.0604,-0.0625,-0.0616,-0.0643,-0.0632,-0.0649,-0.0649,-0.0656,-0.0655,-0.0655,-0.0684,-0.0639,-0.0568,-0.0561,-0.0655,-0.0656,-0.0656,0,-0.0523,-0.0525,-0.0514,-0.0518,-0.0539,-0.0532,-0.0541,-0.0553,-0.0554,-0.0559,-0.056,-0.0564,-0.0566,-0.0568,-0.0589,-0.0607,-0.0575,-0.0604,-0.0582,-0.0582,-0.0574,-0.0574,-0.0501,-0.0575,-0.0575,-0.0575,-0.0575,0,-0.047,-0.0457,-0.0489,-0.0482,-0.0468,-0.0494,-0.0479,-0.0491,-0.0501,-0.0496,-0.0524,-0.0519,-0.0547,-0.0545,-0.0561,-0.0549,-0.055,-0.0557,-0.0562,-0.0555,-0.0553,-0.0555,-0.0558,-0.0573,-0.0574,-0.0574,-0.0574,0,-0.0407,-0.0428,-0.0417,-0.0438,-0.0443,-0.0431,-0.0448,-0.0442,-0.0457,-0.045,-0.045,-0.0473,-0.0472,-0.0493,-0.0496,-0.0507,-0.0487,-0.0497,-0.0483,-0.0486,-0.0464,-0.0465,-0.0389,-0.038,-0.0459,-0.0458,-0.0458,0,-0.0371,-0.0362,-0.0381,-0.038,-0.0387,-0.0385,-0.0386,-0.0411,-0.0412,-0.0423,-0.0415,-0.0416,-0.0418,-0.0414,-0.0431,-0.0433,-0.0443,-0.0416,-0.0444,-0.0436,-0.0442,-0.0442,-0.0441,-0.041,-0.0409,-0.0408,-0.0408,0,-0.0306,-0.0317,-0.0318,-0.0322,-0.0323,-0.0328,-0.0334,-0.0331,-0.0359,-0.0358,-0.0357,-0.0358,-0.0361,-0.0361,-0.0366,-0.0375,-0.0395,-0.0399,-0.0394,-0.0386,-0.0378,-0.0382,-0.0467,-0.04,-0.0401,-0.0402,-0.0402,-0.0402,-0.0255,-0.0248,-0.026,-0.026,-0.0268,-0.0273,-0.0268,-0.0282,-0.0282,-0.0286,-0.0301,-0.0297,-0.0308,-0.0317,-0.0323,-0.032,-0.0333,-0.0326,-0.0325,-0.0322,-0.0318,-0.0379,-0.0321,-0.0321,-0.0322,-0.0322,-0.0322,0,-0.0191,-0.02,-0.02,-0.0208,-0.0208,-0.0228,-0.0236,-0.0234,-0.023,-0.0239,-0.024,-0.0239,-0.0239,-0.0255,-0.0257,-0.0252,-0.0261,-0.0251,-0.0252,-0.0253,-0.0306,-0.031,-0.0244,-0.0244,-0.0244,-0.0244,-0.0244,-0.0244,-0.0157,-0.0146,-0.0158,-0.015,-0.016,-0.0156,-0.0159,-0.0164,-0.0171,-0.0168,-0.0168,-0.0179,-0.019,-0.0193,-0.0194,-0.0199,-0.0198,-0.0185,-0.0193,-0.0242,-0.025,-0.0257,-0.026,-0.0185,-0.0185,-0.014,-0.014,-0.0139]}]]